Meteo Giornale » Osservazioni meteo Italia » Bologna-Borgo Panigale
ore: 20:20 - Osservazioni Meteo Bologna-Borgo Panigale
Lat. 44° 32' N Lon. 11° 18' E Alt. 36 metri s.l.m.
30 °C
Sereno
Temp. 24 Ore
21 °C
34 °C
Sud
18.5 Km/h
Dew point 18 °C
Umidità 48 %
Visibilità 10 Km
Il sole sorge alle ore 06:36
Il sole tramonta alle ore 19:53
| Data e Ora | Cielo e Fenomeni | T °C | DP °C | Um. % | Pres. hPa | Vis. km | Vento km/h | |
|---|---|---|---|---|---|---|---|---|
| Oggi h: 20:20 | Sereno | 30 | 18 | 48 | 1012 | 10 | S 18.5 | |
| Oggi h: 19:50 | Poco Nuvoloso | 31 | 19 | 48 | 1011 | 10 | S 18.5 | |
| Oggi h: 19:20 | Poco Nuvoloso | 32 | 19 | 46 | 1012 | 10 | S 16.7 | |
| Oggi h: 18:50 | Poco Nuvoloso | 33 | 19 | 43 | 1012 | 10 | S 13 | |
| Oggi h: 18:20 | Poco Nuvoloso | 33 | 18 | 41 | 1012 | 10 | S/SE 11.1 | |
| Oggi h: 17:50 | Poco Nuvoloso | 34 | 15 | 32 | 1012 | 10 | N 7.4 | |
| Oggi h: 17:20 | Poco Nuvoloso | 34 | 16 | 34 | 1012 | 10 | N 3.7 | |
| Oggi h: 16:50 | Poco Nuvoloso | 34 | 16 | 34 | 1012 | 10 | N 5.5 | |
| Oggi h: 16:20 | Poco Nuvoloso | 34 | 16 | 34 | 1012 | 10 | N 7.4 | |
| Oggi h: 15:50 | Sereno | 34 | 16 | 34 | 1013 | 10 | E 9.3 | |
| Oggi h: 15:20 | Sereno | 34 | 16 | 34 | 1013 | 10 | N 5.5 | |
| Oggi h: 14:50 | Sereno | 33 | 16 | 36 | 1013 | 10 | N 5.5 | |
| Oggi h: 14:20 | Sereno | 33 | 16 | 36 | 1013 | 10 | N 5.5 | |
| Oggi h: 11:50 | Sereno | 30 | 17 | 45 | 1014 | 10 | N 5.5 | |
| Oggi h: 11:20 | Sereno | 29 | 16 | 45 | 1015 | 10 | NO 7.4 | |
| Oggi h: 10:50 | Sereno | 28 | 16 | 48 | 1015 | 10 | O/NO 7.4 | |
| Oggi h: 09:50 | Sereno | 26 | 15 | 50 | 1014 | 10 | O/SO 7.4 | |
| Oggi h: 09:20 | Sereno | 25 | 15 | 53 | 1014 | 10 | SO 7.4 | |
| Oggi h: 08:50 | Sereno | 24 | 15 | 57 | 1014 | 10 | SO 7.4 | |
| Oggi h: 08:20 | Sereno | 23 | 14 | 56 | 1014 | 10 | SO 13 | |
| Oggi h: 07:50 | Sereno | 22 | 14 | 60 | 1014 | 10 | S/SO 13 | |
| Oggi h: 07:20 | Sereno | 22 | 14 | 60 | 1014 | 10 | S/SO 13 | |
| Oggi h: 06:50 | Sereno | 21 | 14 | 64 | 1014 | 10 | S 14.8 | |
| Oggi h: 06:20 | Sereno | 21 | 14 | 64 | 1013 | 10 | S 13 | |
| Oggi h: 05:50 | Sereno | 21 | 14 | 64 | 1013 | 10 | S/SO 13 | |
| Oggi h: 05:20 | Sereno | 22 | 14 | 60 | 1014 | 10 | S/SO 13 | |
| Oggi h: 04:50 | Sereno | 22 | 14 | 60 | 1014 | 10 | S/SO 13 | |
| Oggi h: 04:20 | Sereno | 22 | 14 | 60 | 1014 | 10 | S/SO 14.8 | |
| Oggi h: 03:50 | Sereno | 22 | 15 | 64 | 1014 | 10 | S/SO 13 | |
| Oggi h: 03:20 | Sereno | 22 | 15 | 64 | 1014 | 10 | S/SO 9.3 | |
| Oggi h: 02:50 | Sereno | 23 | 15 | 60 | 1014 | 10 | S/SO 13 | |
| Oggi h: 02:20 | Sereno | 23 | 15 | 60 | 1014 | 10 | S/SO 13 | |
| Oggi h: 01:50 | Sereno | 23 | 15 | 60 | 1014 | 10 | S 13 | |
| Oggi h: 01:20 | Sereno | 24 | 15 | 57 | 1014 | 10 | N 5.5 | |
| Oggi h: 00:50 | Sereno | 24 | 15 | 57 | 1014 | 10 | N 3.7 | |
| Oggi h: 00:20 | Sereno | 25 | 16 | 57 | 1014 | 10 | S 7.4 | |
| Ieri h: 23:50 | Sereno | 25 | 17 | 61 | 1014 | 10 | N 5.5 | |
| Ieri h: 23:20 | Sereno | 25 | 18 | 65 | 1014 | 10 | N 3.7 | |
| Ieri h: 22:50 | Sereno | 25 | 17 | 61 | 1014 | 10 | N 5.5 | |
| Ieri h: 22:20 | Sereno | 25 | 17 | 61 | 1014 | 10 | SE 9.3 | |
| Ieri h: 21:50 | Sereno | 26 | 17 | 57 | 1014 | 10 | E/SE 13 | |
| Ieri h: 21:20 | Sereno | 27 | 17 | 54 | 1013 | 10 | E/SE 14.8 | |
| Ieri h: 20:50 | Sereno | 27 | 17 | 54 | 1013 | 10 | E 14.8 | |



